User: anonymous   Login
Location: Chanteloup
(48.8560°N, 2.7390°E)
Time: 20:33:55
(UTC+00:00)
Language:

ARGOS - Orbit

View from above orbital plane
View from above orbital plane
View from above satellite
View from above satellite

Ground track
Ground track

The orbit data is extracted from the following two-line orbital elements,

1 25634U 99008A   22017.35036931  .00000016  00000-0  27275-4 0  9992
2 25634  98.4032  39.3295 0010925  43.5279 316.6759 14.19413877186092
Epoch (UTC): 17 January 2022 08:24:31
Eccentricity: 0.0010925
inclination: 98.4032°
perigee height: 819 km
apogee height: 835 km
right ascension of ascending node: 39.3295°
argument of perigee: 43.5279°
revolutions per day: 14.19413877
mean anomaly at epoch: 316.6759°
orbit number at epoch: 18609

The dashed part of the orbit path shows where the satellite is in the earth's shadow,  

DLR